Flag for Canada Weather past 2 weeks in Abbotsford, British Columbia, Canada

Now
52 °F

Sprinkles. Broken clouds.


Feels Like: 51 °F
Forecast: 46 / 52 °F
Wind: 3 mph from Northwest

Location: Abbotsford


UV Index: 0 (Low)

Visibility: 30 mi


Pressure: 29.77 "Hg

Humidity: 72%

Dew point: 43 °F

Location of AbbotsfordLocation

Historic Weather in Abbotsford

°F

Abbotsford temperature yesterday

Maximum temperature yesterday: 54 °F (at 2:00 PM)
Minimum temperature yesterday: 45 °F (at 4:00 AM)
Average temperature yesterday: 48 °F

Past Weeks' High & Low Weather Summary

 TemperatureHumidityPressure
High66 °F (Apr 13, 2:00 PM)100% (Apr 16, 12:00 AM)30.34 "Hg (Apr 16, 12:00 AM)
Low37 °F (Apr 10, 4:00 AM)22% (Apr 13, 3:00 PM)29.69 "Hg (Apr 17, 8:00 PM)
Average50 °F72%30.05 "Hg
* Reported Apr 8 6:00 PM — Apr 23 6:00 PM, Abbotsford, Weather by CustomWeather, © 2014

Note: Actual official high and low records may vary slightly from our data, if they occured in-between our weather recording intervals... More about our weather records

Advertising

Historic Weather Conditions — Data for Previous 24 hours

 ConditionsComfort  
Time TempWeatherWind HumidityBarometerVisibility
6:00 PM
Apr 23
54 °FPartly sunny.2 mph58%29.79 "Hg30 mi
5:00 PM54 °FMostly cloudy.8 mph63%29.80 "Hg30 mi
4:00 PM55 °FPartly sunny.8 mph63%29.83 "Hg30 mi
3:00 PM54 °FBroken clouds.8 mph67%29.85 "Hg20 mi
2:00 PM54 °FPartly sunny.3 mph58%29.86 "Hg20 mi
1:00 PM52 °FPartly sunny.6 mph62%29.88 "Hg20 mi
12:00 PM50 °FPartly sunny.5 mph71%29.88 "Hg20 mi
11:00 AM48 °FMostly cloudy.2 mph76%29.89 "Hg15 mi
10:00 AM48 °FSprinkles. Partly sunny.5 mph87%29.89 "Hg10 mi
9:00 AM45 °FPartly sunny.6 mph93%29.89 "Hg10 mi
8:00 AM43 °FSprinkles. Mostly cloudy.2 mph93%29.89 "Hg10 mi
7:00 AM43 °FSprinkles. Mostly cloudy.No wind93%29.89 "Hg10 mi
6:00 AM43 °FMostly cloudy.No wind87%29.88 "Hg15 mi
5:00 AM43 °FLight rain. Passing clouds.3 mph87%29.88 "Hg10 mi
4:00 AM43 °FPassing clouds.5 mph87%29.87 "Hg10 mi
3:00 AM45 °FPassing clouds.3 mph87%29.86 "Hg10 mi
2:00 AM45 °FLight rain. Overcast.5 mph87%29.86 "Hg10 mi
1:00 AM45 °FLight rain. Overcast.8 mph81%29.85 "Hg10 mi
12:00 AM45 °FLight rain. Overcast.7 mph81%29.85 "Hg10 mi
11:00 PM
Apr 22
46 °FPassing clouds.10 mph76%29.84 "Hg10 mi
10:00 PM48 °FPartly cloudy.7 mph66%29.85 "Hg10 mi
9:00 PM48 °FPartly sunny.7 mph62%29.84 "Hg20 mi
8:00 PM48 °FBroken clouds.3 mph58%29.83 "Hg25 mi
7:00 PM52 °FScattered clouds.9 mph50%29.83 "Hg30 mi
Weather by CustomWeather, © 2014

See weather overview